LPNTSAT-001 (IOD-1)

Last updated on Wed Aug 19 2026 00:03:17 GMT+0000 (Coordinated Universal Time)

1 68408U 26065A 26230.14403298 .00001922 00000+0 95289-4 0 9999 2 68408 97.3920 109.3232 0017305 143.2306 217.0119 15.18799031 21663
UTC large
Height (km)
Speed (km/s)
/
Latitude / Longitude
Inclination (degrees)
Orbital Period (minutes)
Azimuth
Elevation
Range (km)
Doppler Factor

Next 0 passes for location: London (51.5072 / 0.1276)

No passes found over London.
LPNTSAT-001 (IOD-1)